Tracking 32214 objects as of 19-Nov-2025
HD Live streaming from Space Station
objects crossing your sky now

STARLINK-33922

Track STARLINK-33922 now!
10-day predictions
STARLINK-33922 is classified as:


NORAD ID: 63698
Int'l Code: 2025-087B
Perigee: 481.4 km
Apogee: 483.3 km
Inclination: 53.2 °
Period: 94.1 minutes
Semi major axis: 6853 km
RCS: Unknown
Launch date: April 28, 2025
Source: United States (US)
Launch site: AIR FORCE WESTERN TEST RANGE (AFWTR)
Your satellite tracking list
Your tracking list is empty




NASA's NSSDC Master Catalog

Two Line Element Set (TLE):
1 63698U 25087B   25322.85408815  .00028214  00000-0  96088-3 0  9998
2 63698  53.1606  14.1351 0001352  92.4850 267.6305 15.30207689 32228
Source of the keplerian elements: AFSPC